Time,TemperatureF,DewpointF,PressureIn,WindDirection,WindDirectionDegrees,WindSpeedMPH,WindSpeedGustMPH,Humidity,HourlyPrecipIn,Conditions,Clouds,dailyrainin,SoftwareType,DateUTC
2013-08-08 00:09:00,44.8,44.0,29.95,ESE,106,0.0,0.0,96,0.00,,,0.00,weatherlink.com 1.10,2013-08-08 06:09:00,
2013-08-08 00:24:00,45.0,44.0,29.95,ESE,105,0.0,0.0,96,0.00,,,0.00,weatherlink.com 1.10,2013-08-08 06:24:00,
2013-08-08 00:39:00,45.1,44.0,29.94,SW,229,0.0,0.0,96,0.00,,,0.00,weatherlink.com 1.10,2013-08-08 06:39:00,
2013-08-08 00:54:00,45.1,44.0,29.93,SW,229,0.0,0.0,96,0.00,,,0.00,weatherlink.com 1.10,2013-08-08 06:54:00,
2013-08-08 01:09:00,45.2,44.0,29.93,SW,229,0.0,0.0,96,0.00,,,0.00,weatherlink.com 1.10,2013-08-08 07:09:00,
2013-08-08 01:24:00,45.5,45.0,29.93,SW,229,0.0,0.0,96,0.00,,,0.00,weatherlink.com 1.10,2013-08-08 07:24:00,
2013-08-08 01:39:00,45.3,44.0,29.92,SW,229,0.0,0.0,96,0.00,,,0.00,weatherlink.com 1.10,2013-08-08 07:39:00,
2013-08-08 01:54:00,45.1,44.0,29.92,SW,223,0.0,0.0,96,0.00,,,0.00,weatherlink.com 1.10,2013-08-08 07:54:00,
2013-08-08 02:09:00,45.1,44.0,29.92,SW,223,0.0,0.0,96,0.00,,,0.00,weatherlink.com 1.10,2013-08-08 08:09:00,
2013-08-08 02:24:00,45.2,44.0,29.92,SE,134,0.0,0.0,96,0.00,,,0.00,weatherlink.com 1.10,2013-08-08 08:24:00,
2013-08-08 02:39:00,45.2,44.0,29.92,ESE,122,0.0,0.0,96,0.00,,,0.00,weatherlink.com 1.10,2013-08-08 08:39:00,
2013-08-08 02:54:00,45.2,44.0,29.92,ESE,122,0.0,0.0,96,0.00,,,0.00,weatherlink.com 1.10,2013-08-08 08:54:00,
2013-08-08 03:09:00,45.0,44.0,29.92,SW,221,0.0,0.0,96,0.00,,,0.00,weatherlink.com 1.10,2013-08-08 09:09:00,
2013-08-08 03:24:00,45.0,44.0,29.92,SW,221,0.0,0.0,96,0.00,,,0.00,weatherlink.com 1.10,2013-08-08 09:24:00,
2013-08-08 03:39:00,44.9,44.0,29.92,SW,221,0.0,0.0,96,0.00,,,0.00,weatherlink.com 1.10,2013-08-08 09:39:00,
2013-08-08 03:54:00,44.9,44.0,29.92,SW,221,0.0,0.0,96,0.00,,,0.00,weatherlink.com 1.10,2013-08-08 09:54:00,
2013-08-08 04:09:00,44.7,44.0,29.92,SW,221,0.0,0.0,96,0.00,,,0.00,weatherlink.com 1.10,2013-08-08 10:09:00,
2013-08-08 04:24:00,44.5,44.0,29.91,SW,221,0.0,0.0,97,0.00,,,0.00,weatherlink.com 1.10,2013-08-08 10:24:00,
2013-08-08 04:39:00,44.4,44.0,29.91,SW,221,0.0,0.0,97,0.00,,,0.00,weatherlink.com 1.10,2013-08-08 10:39:00,
2013-08-08 04:54:00,44.1,43.0,29.92,SW,221,0.0,0.0,97,0.00,,,0.00,weatherlink.com 1.10,2013-08-08 10:54:00,
2013-08-08 05:09:00,44.4,44.0,29.93,SW,221,0.0,1.0,97,0.00,,,0.00,weatherlink.com 1.10,2013-08-08 11:09:00,
2013-08-08 05:24:00,44.8,44.0,29.92,NNW,342,0.0,2.0,97,0.00,,,0.00,weatherlink.com 1.10,2013-08-08 11:24:00,
2013-08-08 05:39:00,44.7,44.0,29.93,NNW,342,0.0,0.0,97,0.00,,,0.00,weatherlink.com 1.10,2013-08-08 11:39:00,
2013-08-08 05:54:00,44.7,44.0,29.93,NNW,342,0.0,0.0,97,0.00,,,0.00,weatherlink.com 1.10,2013-08-08 11:54:00,
2013-08-08 06:09:00,44.8,44.0,29.93,ENE,66,0.0,0.0,97,0.00,,,0.00,weatherlink.com 1.10,2013-08-08 12:09:00,
2013-08-08 06:25:00,44.8,44.0,29.94,SE,132,1.0,2.0,97,0.00,,,0.00,weatherlink.com 1.10,2013-08-08 12:25:00,
2013-08-08 06:40:00,44.7,44.0,29.94,SSE,163,0.0,0.0,97,0.00,,,0.00,weatherlink.com 1.10,2013-08-08 12:40:00,
2013-08-08 06:55:00,44.7,44.0,29.95,SE,142,0.0,0.0,97,0.00,,,0.00,weatherlink.com 1.10,2013-08-08 12:55:00,
2013-08-08 07:10:00,44.7,44.0,29.95,SE,143,0.0,0.0,97,0.00,,,0.00,weatherlink.com 1.10,2013-08-08 13:10:00,
2013-08-08 07:25:00,45.0,44.0,29.95,SE,142,0.0,0.0,97,0.00,,,0.00,weatherlink.com 1.10,2013-08-08 13:25:00,
2013-08-08 07:40:00,45.3,45.0,29.95,SE,143,0.0,0.0,97,0.00,,,0.00,weatherlink.com 1.10,2013-08-08 13:40:00,
2013-08-08 07:55:00,45.5,45.0,29.95,SW,232,0.0,0.0,97,0.00,,,0.00,weatherlink.com 1.10,2013-08-08 13:55:00,
2013-08-08 08:10:00,45.8,45.0,29.95,SW,232,0.0,0.0,96,0.00,,,0.00,weatherlink.com 1.10,2013-08-08 14:10:00,
2013-08-08 08:25:00,46.3,45.0,29.95,SW,232,0.0,0.0,96,0.00,,,0.00,weatherlink.com 1.10,2013-08-08 14:25:00,
2013-08-08 08:40:00,46.9,45.0,29.96,SW,232,0.0,0.0,94,0.00,,,0.00,weatherlink.com 1.10,2013-08-08 14:40:00,
2013-08-08 08:55:00,48.7,47.0,29.96,ESE,114,0.0,0.0,92,0.00,,,0.00,weatherlink.com 1.10,2013-08-08 14:55:00,
2013-08-08 09:12:00,50.3,47.0,29.96,SSE,155,0.0,0.0,89,0.00,,,0.00,weatherlink.com 1.10,2013-08-08 15:12:00,
2013-08-08 09:25:00,50.4,46.0,29.96,SSE,158,0.0,0.0,86,0.00,,,0.00,weatherlink.com 1.10,2013-08-08 15:25:00,
2013-08-08 09:40:00,50.3,47.0,29.95,SE,135,0.0,0.0,88,0.00,,,0.00,weatherlink.com 1.10,2013-08-08 15:40:00,
2013-08-08 09:55:00,52.0,47.0,29.95,East,101,5.0,6.0,84,0.00,,,0.00,weatherlink.com 1.10,2013-08-08 15:55:00,
2013-08-08 10:10:00,53.8,49.0,29.94,SSW,210,0.0,5.0,83,0.00,,,0.00,weatherlink.com 1.10,2013-08-08 16:10:00,
2013-08-08 10:25:00,56.0,49.0,29.93,SE,139,2.0,5.0,78,0.00,,,0.00,weatherlink.com 1.10,2013-08-08 16:25:00,
2013-08-08 10:40:00,56.5,48.0,29.93,ESE,111,0.0,4.0,74,0.00,,,0.00,weatherlink.com 1.10,2013-08-08 16:40:00,
2013-08-08 10:55:00,57.6,48.0,29.92,SW,232,1.0,3.0,71,0.00,,,0.00,weatherlink.com 1.10,2013-08-08 16:55:00,
2013-08-08 11:10:00,59.6,49.0,29.91,ESE,111,2.0,3.0,69,0.00,,,0.00,weatherlink.com 1.10,2013-08-08 17:10:00,
2013-08-08 11:25:00,60.6,50.0,29.91,ENE,61,3.0,3.0,67,0.00,,,0.00,weatherlink.com 1.10,2013-08-08 17:25:00,
2013-08-08 11:40:00,62.1,47.0,29.90,NW,312,0.0,5.0,59,0.00,,,0.00,weatherlink.com 1.10,2013-08-08 17:40:00,
2013-08-08 11:55:00,63.2,44.0,29.89,South,169,5.0,6.0,50,0.00,,,0.00,weatherlink.com 1.10,2013-08-08 17:55:00,
2013-08-08 12:10:00,65.1,46.0,29.89,South,178,5.0,11.0,50,0.00,,,0.00,weatherlink.com 1.10,2013-08-08 18:10:00,
2013-08-08 12:25:00,65.6,43.0,29.88,North,4,1.0,6.0,44,0.00,,,0.00,weatherlink.com 1.10,2013-08-08 18:25:00,
2013-08-08 12:41:00,63.9,45.0,29.88,NW,319,9.0,16.0,51,0.00,,,0.00,weatherlink.com 1.10,2013-08-08 18:41:00,
2013-08-08 12:56:00,59.7,43.0,29.88,NW,312,15.0,19.0,55,0.00,,,0.00,weatherlink.com 1.10,2013-08-08 18:56:00,
2013-08-08 13:11:00,60.2,44.0,29.89,NNW,330,14.0,19.0,55,0.00,,,0.00,weatherlink.com 1.10,2013-08-08 19:11:00,
2013-08-08 13:26:00,59.7,43.0,29.89,NNW,330,14.0,17.0,54,0.00,,,0.00,weatherlink.com 1.10,2013-08-08 19:26:00,
2013-08-08 13:41:00,57.9,44.0,29.91,NNE,27,6.0,14.0,60,0.00,,,0.00,weatherlink.com 1.10,2013-08-08 19:41:00,
2013-08-08 13:56:00,54.1,42.0,29.94,ESE,108,6.0,15.0,65,0.05,,,0.05,weatherlink.com 1.10,2013-08-08 19:56:00,
2013-08-08 14:11:00,52.5,44.0,29.94,ESE,123,5.0,12.0,72,0.06,,,0.06,weatherlink.com 1.10,2013-08-08 20:11:00,
2013-08-08 14:26:00,52.0,44.0,29.95,ESE,123,7.0,15.0,75,0.07,,,0.07,weatherlink.com 1.10,2013-08-08 20:26:00,
2013-08-08 14:41:00,52.0,45.0,29.96,SE,126,4.0,9.0,76,0.07,,,0.07,weatherlink.com 1.10,2013-08-08 20:41:00,
2013-08-08 14:56:00,52.4,44.0,29.96,North,359,1.0,3.0,74,0.01,,,0.07,weatherlink.com 1.10,2013-08-08 20:56:00,
2013-08-08 15:11:00,52.1,45.0,29.96,NNW,340,3.0,5.0,77,0.01,,,0.07,weatherlink.com 1.10,2013-08-08 21:11:00,
2013-08-08 15:26:00,52.1,45.0,29.95,North,349,4.0,7.0,78,0.00,,,0.07,weatherlink.com 1.10,2013-08-08 21:26:00,
2013-08-08 15:41:00,52.6,45.0,29.95,NW,322,6.0,10.0,76,0.00,,,0.07,weatherlink.com 1.10,2013-08-08 21:41:00,
2013-08-08 16:11:00,53.2,44.0,29.95,NNW,337,5.0,12.0,71,0.00,,,0.07,weatherlink.com 1.10,2013-08-08 22:11:00,
2013-08-08 16:26:00,53.1,45.0,29.94,NNW,337,11.0,13.0,73,0.00,,,0.07,weatherlink.com 1.10,2013-08-08 22:26:00,
2013-08-08 16:56:00,53.7,44.0,29.95,NW,315,6.0,15.0,71,0.00,,,0.07,weatherlink.com 1.10,2013-08-08 22:56:00,
2013-08-08 17:11:00,53.7,42.0,29.95,NW,319,8.0,11.0,66,0.00,,,0.07,weatherlink.com 1.10,2013-08-08 23:11:00,
2013-08-08 17:26:00,53.9,43.0,29.96,WNW,288,1.0,7.0,66,0.00,,,0.07,weatherlink.com 1.10,2013-08-08 23:26:00,
2013-08-08 17:41:00,54.0,43.0,29.96,NNW,336,2.0,4.0,67,0.00,,,0.07,weatherlink.com 1.10,2013-08-08 23:41:00,
2013-08-08 17:56:00,54.4,43.0,29.96,NNW,330,3.0,7.0,66,0.00,,,0.07,weatherlink.com 1.10,2013-08-08 23:56:00,
2013-08-08 18:26:00,54.2,44.0,29.95,NE,36,4.0,5.0,69,0.00,,,0.07,weatherlink.com 1.10,2013-08-09 00:26:00,
2013-08-08 18:56:00,53.1,46.0,29.96,SSE,151,2.0,4.0,76,0.00,,,0.07,weatherlink.com 1.10,2013-08-09 00:56:00,
2013-08-08 19:11:00,52.4,45.0,29.96,SE,129,6.0,10.0,77,0.00,,,0.07,weatherlink.com 1.10,2013-08-09 01:11:00,
2013-08-08 19:26:00,51.7,45.0,29.96,SSE,151,5.0,10.0,79,0.00,,,0.07,weatherlink.com 1.10,2013-08-09 01:26:00,
2013-08-08 19:41:00,51.5,45.0,29.96,SSE,150,5.0,9.0,78,0.00,,,0.07,weatherlink.com 1.10,2013-08-09 01:41:00,
2013-08-08 20:11:00,51.3,43.0,29.96,SSE,166,9.0,12.0,73,0.00,,,0.07,weatherlink.com 1.10,2013-08-09 02:11:00,
2013-08-08 20:26:00,50.7,43.0,29.97,SSE,148,6.0,10.0,76,0.00,,,0.07,weatherlink.com 1.10,2013-08-09 02:26:00,
2013-08-08 20:41:00,49.9,43.0,29.98,SSE,150,6.0,7.0,78,0.00,,,0.07,weatherlink.com 1.10,2013-08-09 02:41:00,
2013-08-08 20:56:00,49.4,44.0,29.99,ESE,117,0.0,4.0,81,0.00,,,0.07,weatherlink.com 1.10,2013-08-09 02:56:00,
2013-08-08 21:11:00,49.1,44.0,29.99,ESE,104,2.0,3.0,82,0.00,,,0.07,weatherlink.com 1.10,2013-08-09 03:11:00,
2013-08-08 21:26:00,49.4,44.0,30.00,ESE,117,0.0,2.0,80,0.00,,,0.07,weatherlink.com 1.10,2013-08-09 03:26:00,
2013-08-08 21:56:00,49.7,44.0,30.02,NW,308,4.0,4.0,80,0.00,,,0.07,weatherlink.com 1.10,2013-08-09 03:56:00,
2013-08-08 22:11:00,49.6,44.0,30.02,WNW,288,2.0,4.0,80,0.00,,,0.07,weatherlink.com 1.10,2013-08-09 04:11:00,
2013-08-08 22:26:00,49.2,44.0,30.01,NNE,25,2.0,4.0,83,0.00,,,0.07,weatherlink.com 1.10,2013-08-09 04:26:00,
2013-08-08 22:41:00,48.2,44.0,30.01,NNW,342,2.0,5.0,85,0.00,,,0.07,weatherlink.com 1.10,2013-08-09 04:41:00,
2013-08-08 22:56:00,47.3,44.0,30.02,WNW,285,0.0,2.0,87,0.00,,,0.07,weatherlink.com 1.10,2013-08-09 04:56:00,
2013-08-08 23:11:00,47.5,44.0,30.02,WNW,291,0.0,3.0,87,0.00,,,0.07,weatherlink.com 1.10,2013-08-09 05:11:00,
2013-08-08 23:26:00,47.1,44.0,30.02,East,88,0.0,1.0,89,0.00,,,0.07,weatherlink.com 1.10,2013-08-09 05:26:00,
2013-08-08 23:41:00,46.3,43.0,30.02,SW,221,0.0,0.0,89,0.00,,,0.07,weatherlink.com 1.10,2013-08-09 05:41:00,
2013-08-08 23:56:00,46.4,44.0,30.01,East,90,0.0,0.0,90,0.00,,,0.07,weatherlink.com 1.10,2013-08-09 05:56:00,